sat.trackr.live / text

‹ back to catalog

STARLINK-5431

NORAD 54792 · 2022-175AL

PAYLOAD ACTIVE UNKNOWN

§ Identity

Operator
Country
US
Launch date
2022-12-17
Launch site
AFETR
Launch vehicle
Mass (kg)
RCS (m²)

Purposes: comms

External: N2YO · Heavens-Above · Gunter

§ Orbital elements

Epoch: 2026-05-25T01:28:23.598336Z

Period
95.44 min
Inclination
53.2133°
Eccentricity
0.0001640
Mean motion
15.08845697 rev/d
Perigee alt
538.6 km
Apogee alt
540.9 km
Semi-major
6,917.9 km
B*
-3.8688e-5
RAAN
60.9138°
Arg perigee
91.3141°
Mean anomaly
268.8039°
Rev number
19,145

§ Raw data

STARLINK-54311 54792U 22175AL  26145.06138424 -.00000904  00000+0 -38688-4 0  99912 54792  53.2133  60.9138 0001640  91.3141 268.8039 15.08845697191452

JSON: /api/v1/satellites/54792 · /tle

For live sub-satellite position, see the globe view (requires WebGL).

§ Visibility from observer

Set your observer location to see the next 7 days of passes ≥ 10°. The values pass through the URL so the page stays shareable.

No JS? Fill the form by hand. The geolocation button needs JavaScript.